Tracking 29932 objects as of 4-Dec-2024
HD Live streaming from Space Station
objects crossing your sky now

STARLINK-11200

Track STARLINK-11200 now!
10-day predictions
STARLINK-11200 is classified as:


NORAD ID: 60310
Int'l Code: 2024-133K
Perigee: 365.8 km
Apogee: 368.0 km
Inclination: 53.2 °
Period: 91.7 minutes
Semi major axis: 6737 km
RCS: Unknown
Launch date: July 28, 2024
Source: United States (US)
Launch site: AIR FORCE WESTERN TEST RANGE (AFWTR)
Your satellite tracking list
Your tracking list is empty




NASA's NSSDC Master Catalog

Two Line Element Set (TLE):
1 60310U 24133K   24338.18610500 -.00000367  00000-0  18407-5 0  9996
2 60310  53.1578 260.9777 0001687  81.9481 278.1729 15.69697761 21255
Source of the keplerian elements: AFSPC